Theta_e
308 308 309 309 309 307 307 307 306 305 306 306 306 304 302 299 302 306 305 302 302 304 303 302 300 300 299 298 299 299 299 298 296 299 300 301 300 299 299 299 300 300 299
308 309 310 309 308 308 308 308 308 305 306 306 305 304 301 299 302 306 305 302 302 302 302 302 301 301 301 300 299 299 299 300 298 298 300 300 300 299 299 299 300 300 300
310 310 310 309 308 308 308 308 308 305 305 305 305 304 302 299 300 304 305 304 303 304 304 303 302 302 302 300 299 299 299 300 299 298 298 299 300 300 299 300 300 299 299
310 310 310 309 308 309 308 308 308 306 305 305 305 305 303 303 298 301 303 304 304 304 303 304 304 303 302 301 300 300 299 299 300 300 299 299 300 300 299 299 299 299 298
309 310 310 310 309 308 309 308 308 308 306 306 305 305 304 304 302 299 300 302 302 302 303 303 302 303 304 302 301 300 300 299 299 299 299 298 299 299 299 299 298 297 296
310 310 310 310 309 309 308 309 308 308 306 306 306 305 306 306 305 305 302 299 300 301 302 302 302 303 303 303 303 300 300 299 299 299 299 298 298 298 298 298 296 296 296
310 310 311 310 309 309 308 308 308 308 308 307 308 307 305 306 306 305 304 304 304 302 302 302 302 303 303 303 303 301 301 301 300 299 299 299 297 297 296 296 296 295 294
310 310 310 309 309 309 307 308 308 308 309 309 307 306 305 305 305 306 306 306 305 306 306 304 302 302 302 303 302 301 301 301 300 299 298 297 296 296 295 295 295 294 294
311 310 310 309 309 308 306 308 307 307 307 307 307 307 307 307 307 307 307 306 306 306 306 305 303 302 302 302 302 302 302 302 300 299 298 298 296 295 295 295 294 294 295
311 310 310 310 310 306 307 306 306 307 307 307 307 307 308 309 310 310 309 309 309 309 308 306 303 301 301 302 301 301 301 301 299 299 299 298 297 295 295 294 294 294 294
312 310 311 310 306 306 306 306 306 307 307 308 308 308 309 309 308 306 306 305 305 306 305 301 302 302 302 302 301 300 300 299 298 298 298 297 296 296 294 294 294 294 294
311 311 307 306 306 306 306 306 307 307 308 308 308 308 309 308 306 304 304 303 302 301 301 303 302 301 301 300 299 300 300 299 298 298 297 297 296 295 295 295 295 295 296
310 307 305 306 306 306 306 307 307 307 307 308 308 307 308 306 305 303 301 301 302 302 302 301 300 299 298 299 299 300 299 298 298 297 297 296 296 295 295 295 296 296 296
309 305 306 306 307 307 308 309 309 308 308 308 307 307 307 307 304 302 301 303 302 303 301 300 299 298 299 299 299 299 298 298 298 297 296 296 296 295 295 295 295 296 296
306 306 307 307 308 308 308 309 308 308 308 308 308 307 307 305 303 301 303 301 301 302 300 299 298 298 299 298 298 298 298 298 298 297 296 296 296 296 296 296 296 296 296
307 307 308 308 309 309 309 309 307 308 306 306 306 307 304 302 301 303 302 299 299 299 298 298 298 298 298 298 297 298 298 298 297 297 297 296 296 295 295 297 297 297 296
307 307 308 308 309 310 308 307 307 304 303 303 303 302 302 303 303 301 299 299 298 298 298 298 298 297 298 298 298 298 298 297 297 297 297 296 296 296 295 295 296 296 297
307 308 309 309 307 306 308 307 306 303 302 302 302 302 302 300 300 299 299 298 298 298 298 298 297 298 298 298 297 297 297 298 297 297 297 296 296 295 295 295 296 296 297
308 309 309 308 308 307 307 308 307 303 302 301 301 301 300 300 299 299 298 298 298 298 298 297 297 299 298 298 297 298 297 298 297 297 296 296 296 295 295 295 296 297 298
309 309 309 309 307 306 305 305 304 302 302 301 301 300 300 300 299 298 298 297 298 298 297 296 297 299 298 299 297 296 297 298 297 296 295 296 297 296 296 297 297 297 299
309 309 309 309 309 306 304 304 303 303 302 301 300 300 299 299 298 297 297 298 298 297 296 295 297 298 298 298 296 296 297 301 298 296 296 297 297 297 297 298 298 299 300
309 309 309 308 307 302 302 304 302 302 301 300 299 298 298 298 297 297 298 298 297 296 295 295 297 297 296 296 296 296 297 298 299 297 297 297 297 299 298 298 299 300 301
308 308 308 308 302 301 302 302 301 301 300 299 299 297 297 297 297 297 298 298 297 295 294 294 296 296 296 296 296 296 296 297 297 298 299 298 299 299 299 299 299 300 301
308 308 307 303 301 301 301 301 300 300 299 299 297 297 297 296 296 296 297 296 295 294 293 293 295 294 294 295 296 297 298 298 297 298 298 297 298 299 298 296 296 298 299
307 306 301 301 300 300 299 299 300 299 298 297 297 297 296 296 295 295 294 294 293 293 292 293 294 294 294 294 295 297 298 298 298 296 296 296 296 296 294 293 295 299 300
304 302 300 300 299 299 298 298 298 298 298 297 296 296 296 295 294 294 293 292 291 291 291 292 293 293 293 294 294 296 298 299 299 297 294 294 295 293 292 291 293 297 298
Wind_Speed
18 18 15 10 8 7 6 4 2 3 4 4 4 7 9 8 5 6 8 11 10 7 7 9 7 7 11 15 15 12 10 10 4 14 19 21 22 21 20 18 16 20 21
19 19 14 11 10 9 7 5 7 4 4 2 1 3 7 8 6 5 6 6 7 6 5 6 7 8 8 10 12 12 9 9 7 14 22 24 22 20 21 21 20 21 21
19 20 15 12 12 10 7 7 5 8 5 4 2 1 5 8 6 4 4 4 5 8 9 11 12 12 12 9 10 12 12 12 13 13 20 24 24 23 23 23 25 23 25
20 21 17 14 13 10 6 6 4 9 6 5 3 2 2 6 6 4 4 6 8 10 12 12 15 17 17 15 12 15 16 17 17 18 21 22 22 25 23 23 25 26 31
22 22 18 14 13 9 7 4 4 5 8 5 4 4 5 5 5 6 5 8 10 13 14 14 17 16 20 20 17 18 20 20 21 21 23 19 24 24 25 20 22 27 29
24 23 18 14 13 11 8 7 4 4 8 6 4 6 7 9 8 9 9 10 12 12 14 15 16 19 20 19 20 20 19 19 20 18 23 17 21 24 23 20 20 15 7
24 21 16 17 13 10 12 9 9 6 8 7 7 8 10 11 10 12 13 15 16 16 16 16 17 17 18 13 18 22 24 22 16 13 14 18 18 20 21 19 15 17 17
23 20 16 15 10 11 11 10 9 7 8 8 9 8 12 14 14 17 19 20 20 21 27 21 18 17 18 15 18 26 22 21 17 10 12 18 17 18 21 17 18 19 21
23 18 17 14 11 11 12 12 8 8 10 9 11 13 16 20 20 23 24 26 27 28 29 27 19 16 14 15 18 19 21 18 16 10 15 22 17 17 18 15 14 15 11
24 19 17 15 12 12 12 10 8 8 10 11 14 15 18 23 25 21 15 14 17 21 21 22 19 13 13 14 14 16 17 21 12 18 25 28 18 16 15 13 15 14 12
22 17 15 14 13 12 10 8 8 9 12 14 17 20 21 17 11 9 7 7 9 12 13 14 14 12 12 14 17 18 16 9 14 24 28 21 21 19 17 16 15 14 15
18 17 17 14 15 10 8 9 10 13 15 18 20 22 18 10 9 5 7 7 7 8 8 9 11 12 13 14 16 17 6 11 23 26 18 18 18 19 20 17 16 14 14
19 20 16 13 13 10 11 13 16 16 18 21 21 22 21 12 8 6 5 4 5 5 6 7 9 12 16 15 14 12 12 22 22 18 17 17 19 19 18 17 16 15 17
19 19 14 12 12 11 12 14 16 19 21 24 27 28 21 15 8 3 1 3 4 4 5 7 11 14 15 12 14 12 22 16 17 16 18 19 20 20 20 17 18 19 18
20 16 14 11 9 10 11 14 17 23 21 23 23 17 10 7 3 1 4 5 6 4 6 11 13 14 13 15 17 21 17 18 18 19 18 19 19 20 20 19 17 18 13
19 15 11 9 8 9 12 17 12 9 11 2 2 5 3 4 5 5 5 6 7 9 12 14 14 14 20 22 20 18 19 18 18 17 18 19 20 21 21 21 18 17 15
17 14 11 8 12 12 9 12 10 4 9 12 11 8 7 11 8 9 8 9 11 10 12 12 13 20 23 18 18 17 17 19 17 19 20 20 20 21 20 20 20 17 16
13 11 6 5 4 3 8 12 6 12 8 11 12 14 13 14 9 10 8 9 12 12 10 11 17 22 20 17 16 16 18 20 20 22 21 20 20 20 20 20 19 16 17
10 8 6 3 2 4 8 4 8 13 8 13 19 16 13 10 10 10 10 11 10 9 9 16 19 18 17 20 20 19 19 20 22 23 22 22 23 21 22 20 20 19 17
6 5 4 4 6 3 2 12 13 9 9 12 14 12 10 5 8 7 8 10 11 8 12 18 19 17 16 20 22 22 23 23 26 26 23 22 22 21 21 22 20 18 17
7 3 1 7 2 2 9 12 11 13 16 15 12 9 6 6 5 7 9 8 7 9 14 19 19 18 16 19 22 21 22 24 26 28 26 24 24 24 22 21 19 18 17
5 3 4 5 8 14 10 12 15 16 16 15 13 10 6 6 7 10 9 7 8 11 16 18 19 19 18 19 22 22 24 23 26 29 27 26 24 22 22 22 21 20 20
5 1 6 11 18 15 14 16 16 17 17 15 13 8 7 8 9 10 10 8 7 12 16 17 19 20 19 20 21 23 23 22 25 24 25 26 25 24 22 23 24 22 19
5 2 12 19 19 18 17 17 17 18 16 14 11 8 7 7 8 9 7 6 9 13 16 16 17 18 20 21 22 23 24 24 23 22 20 22 23 22 22 25 25 26 21
7 18 21 21 20 19 18 17 18 17 16 13 10 7 6 6 8 8 9 9 12 15 16 15 16 18 20 21 23 22 23 23 25 26 23 22 22 20 23 26 26 24 16
20 23 22 20 20 19 18 17 17 17 16 12 9 6 5 6 7 10 12 13 14 14 15 15 16 18 20 22 23 22 23 24 25 26 25 23 22 22 27 27 23 20 19
Wind_Direction
169 163 165 168 179 186 194 199 157 136 90 82 58 41 24 26 49 90 80 77 65 63 46 34 29 12 17 23 19 18 7 348 308 321 326 337 341 341 338 331 323 319 314
174 173 176 183 188 195 210 214 215 178 171 94 131 34 32 29 42 83 75 73 42 23 350 327 331 346 338 354 1 359 349 333 300 301 319 325 330 338 332 328 328 329 325
179 180 182 194 197 212 235 238 235 185 174 165 197 22 28 30 34 54 46 15 349 347 328 312 309 306 307 307 331 339 334 332 323 295 308 318 320 328 330 326 322 320 325
183 186 187 197 207 221 231 235 209 197 204 194 200 251 345 17 20 5 342 333 322 320 328 330 320 294 289 286 301 316 319 320 323 317 311 317 320 325 323 316 319 321 326
184 189 193 195 204 209 210 193 218 212 206 212 227 259 285 313 340 344 323 321 326 324 327 330 333 323 292 285 284 308 307 307 315 311 307 307 316 322 323 317 314 322 322
190 193 195 202 200 208 215 208 230 230 209 222 248 268 280 291 299 308 315 317 320 316 321 328 329 342 331 293 283 292 316 308 312 312 308 299 314 319 315 310 312 318 319
193 193 199 195 198 217 215 227 221 238 229 233 272 284 280 284 286 288 288 295 302 310 313 314 323 333 336 315 299 299 306 322 321 311 310 319 315 315 319 307 307 311 303
191 191 188 196 206 199 211 214 217 239 243 263 275 284 282 285 291 291 292 291 291 301 299 305 316 311 316 300 298 309 315 318 328 319 328 329 327 318 322 313 311 312 315
191 196 195 193 197 206 214 212 233 249 252 264 284 289 291 299 303 303 300 295 295 294 294 305 327 308 311 314 318 320 319 323 312 302 326 335 322 326 324 320 320 316 307
194 191 190 196 215 213 208 221 240 248 261 278 292 297 305 305 308 311 318 307 299 304 312 316 329 323 319 328 333 333 316 318 309 323 330 332 338 334 334 327 322 305 305
193 194 206 202 203 197 215 230 242 259 275 285 295 307 315 317 321 324 322 319 314 321 332 339 345 344 339 340 334 330 320 312 332 333 335 338 340 336 338 336 330 319 300
188 192 181 187 187 209 234 250 265 276 285 294 305 316 327 306 305 294 310 322 336 350 353 355 360 358 352 339 337 332 329 340 336 336 330 324 326 331 334 331 333 329 316
180 179 176 184 199 228 252 271 280 287 292 297 305 307 311 303 267 283 327 352 1 6 3 15 15 5 355 348 352 353 343 335 338 332 322 323 328 334 338 338 338 331 330
175 176 179 196 212 234 256 276 285 289 296 299 301 303 309 286 244 310 3 20 9 23 27 20 15 1 360 14 5 350 339 344 341 327 330 336 336 335 336 339 327 332 321
169 178 196 217 241 257 269 286 296 301 299 296 299 306 310 298 216 126 70 42 31 34 31 20 6 2 5 356 343 340 348 348 341 341 340 338 335 335 335 340 336 331 305
169 176 191 222 260 284 293 304 321 320 331 67 60 89 93 98 124 112 94 76 56 52 38 23 17 8 348 340 344 350 348 336 347 346 340 337 330 328 327 335 334 323 302
176 187 203 243 275 281 298 310 315 102 106 78 74 81 101 111 107 106 92 79 51 34 33 25 11 353 351 355 346 345 330 339 342 346 342 339 339 333 330 328 328 320 317
180 195 226 247 254 285 320 305 285 161 117 75 87 104 105 110 91 93 69 46 42 35 34 19 360 1 6 354 354 348 348 347 347 348 344 342 343 334 332 329 328 322 321
198 192 206 305 313 327 324 309 144 153 117 107 118 108 101 92 91 72 51 50 36 25 37 10 3 5 13 6 2 357 354 350 349 348 341 338 339 338 331 333 331 330 333
169 195 229 312 354 330 188 148 144 137 114 121 133 115 115 81 79 63 53 42 29 52 23 11 5 3 7 357 357 356 356 358 356 352 348 345 344 343 339 334 334 325 326
182 136 51 347 280 191 165 162 155 134 122 121 117 114 101 92 79 49 34 30 57 46 23 11 6 7 3 355 357 357 360 357 349 350 345 344 344 343 343 341 340 341 332
154 70 348 325 151 160 160 164 152 141 137 130 124 115 100 80 57 43 44 58 67 33 15 6 7 12 7 4 0 358 354 349 348 348 347 347 348 345 344 338 334 331 333
129 320 315 159 157 151 146 155 151 147 142 135 132 121 103 76 54 52 62 83 32 11 4 4 6 9 9 8 8 6 358 353 346 349 346 346 345 344 344 337 336 327 321
150 258 155 151 146 146 150 157 154 152 146 142 137 122 95 70 64 64 81 47 10 4 2 3 3 7 7 7 7 8 7 4 0 356 353 349 349 349 349 346 341 335 324
176 159 151 147 147 144 142 145 151 153 150 148 133 112 94 81 65 50 34 12 357 354 358 0 1 2 2 4 5 3 1 4 9 5 359 356 354 354 353 349 347 345 341
155 155 149 147 148 147 144 144 149 153 150 141 125 109 91 66 40 20 7 359 358 357 356 358 357 359 359 1 3 360 357 358 0 0 358 1 357 355 354 349 349 349 353